Date String (YYYY-MM-DD hh:mm:ss) UTC,Instrument flags,absolute air pressure of the measurement (hPa),sample flow rate (lpm),inlet stack bypass flow (lpm),air temperature of the measurement (°C),ambient temperature measured by the external sensor (°C),aerosol sample conditioner tube jacket temperature (°C),OPC LED temperature (°C),internal box temperature (°C),relative humidity of the measurement (%),span deviation,mass concentration of particles derived from Lorenz-Mie calculation of OPC scattering (μg/m³),mass concentration of particles derived from Lorenz-Mie calculation of OPC scattering (μg/m³),mass concentration of particles derived from Lorenz-Mie calculation of OPC scattering (μg/m³)
DateTimeUTC,F1_M11,P_M11,Q1_M11,Q2_M11,T1_M11,T2_M11,T3_M11,T4_M11,T5_M11,U1_M11,ZSPAN_M11,X2_M11,X0_M11,X1_M11
2024-06-04 14:00:00,SystemResetWarning,0823.8,5.02,000.00,029.8,026.6,000.0,039.0,030.6,016.9,0000.0,0001.39,0005.26,0000.72
2024-06-04 14:01:00,SystemResetWarning,0823.8,4.98,000.00,029.8,027.0,000.0,038.8,030.8,017.0,0000.0,0001.33,0005.01,0000.70
2024-06-04 14:02:00,SystemResetWarning,0823.8,5.00,000.00,029.7,027.4,000.0,038.7,031.0,017.2,0000.0,0001.30,0004.90,0000.69
2024-06-04 14:03:00,SystemResetWarning,0823.8,5.00,000.00,029.8,027.8,000.0,038.6,031.2,017.3,0000.0,0001.30,0004.90,0000.68
2024-06-04 14:04:00,SystemResetWarning,0823.8,5.01,000.00,029.8,028.1,000.0,038.5,031.3,017.2,0000.0,0001.26,0004.71,0000.68
2024-06-04 14:05:00,SystemResetWarning,0823.9,5.00,000.00,029.8,028.4,000.0,038.4,031.4,017.0,0000.0,0001.23,0004.65,0000.68
2024-06-04 14:06:00,SystemResetWarning,0823.8,5.00,000.00,029.8,028.6,000.0,038.4,031.5,017.2,0000.0,0001.20,0004.16,0000.67
2024-06-04 14:07:00,SystemResetWarning,0823.8,5.00,000.00,029.9,028.8,000.0,038.4,031.5,017.6,0000.0,0001.17,0003.63,0000.65
2024-06-04 14:08:00,SystemResetWarning,0823.8,4.99,000.00,029.9,028.9,000.0,038.4,031.6,017.8,0000.0,0001.16,0004.20,0000.64
2024-06-04 14:09:00,SystemResetWarning,0823.8,5.00,000.00,029.9,029.0,000.0,038.4,031.6,017.7,0000.0,0001.14,0004.59,0000.64
2024-06-04 14:10:00,SystemResetWarning,0823.8,5.01,000.00,030.0,029.1,000.0,038.4,031.7,017.8,0000.0,0001.13,0004.13,0000.65
2024-06-04 14:11:00,SystemResetWarning,0823.8,5.00,000.00,030.0,029.2,000.0,038.4,031.7,018.1,0000.0,0001.15,0003.79,0000.66
2024-06-04 14:12:00,SystemResetWarning,0823.8,5.00,000.00,030.0,029.3,000.0,038.4,031.8,017.7,0000.0,0001.16,0003.84,0000.67
2024-06-04 14:13:00,SystemResetWarning,0823.8,5.01,000.00,030.1,029.4,000.0,038.4,031.8,017.3,0000.0,0001.17,0003.85,0000.67
2024-06-04 14:14:00,SystemResetWarning,0823.8,5.01,000.00,030.1,029.4,000.0,038.4,031.8,017.3,0000.0,0001.18,0003.97,0000.68
2024-06-04 14:15:00,SystemResetWarning,0823.8,5.00,000.00,030.2,029.5,000.0,038.4,031.9,017.8,0000.0,0001.15,0004.14,0000.68
2024-06-04 14:16:00,SystemResetWarning,0823.8,5.00,000.00,030.2,029.5,000.0,038.4,031.9,017.9,0000.0,0001.16,0004.25,0000.68
2024-06-04 14:17:00,SystemResetWarning,0823.8,5.00,000.00,030.2,029.6,000.0,038.4,032.0,017.4,0000.0,0001.13,0004.34,0000.68
2024-06-04 14:18:00,SystemResetWarning,0823.7,5.00,000.00,030.2,029.6,000.0,038.5,032.0,017.0,0000.0,0001.14,0004.50,0000.69
2024-06-04 14:19:00,SystemResetWarning,0823.7,5.01,000.00,030.3,029.7,000.0,038.5,032.0,017.0,0000.0,0001.15,0003.88,0000.71
2024-06-04 14:20:00,SystemResetWarning,0823.7,4.99,000.00,030.3,029.7,000.0,038.5,032.0,016.9,0000.0,0001.23,0003.57,0000.73
2024-06-04 14:21:00,SystemResetWarning,0823.7,4.99,000.00,030.3,029.7,000.0,038.5,032.1,017.0,0000.0,0001.23,0003.50,0000.73
2024-06-04 14:22:00,SystemResetWarning,0823.7,5.00,000.00,030.4,029.8,000.0,038.5,032.1,016.7,0000.0,0001.24,0003.03,0000.73
2024-06-04 14:23:00,SystemResetWarning,0823.8,5.00,000.00,030.4,029.8,000.0,038.6,032.1,016.7,0000.0,0001.25,0003.29,0000.74
2024-06-04 14:24:00,SystemResetWarning,0823.8,5.00,000.00,030.4,029.8,000.0,038.6,032.1,016.9,0000.0,0001.32,0004.04,0000.76
2024-06-04 14:25:00,SystemResetWarning,0823.8,5.00,000.00,030.4,029.8,000.0,038.6,032.1,017.2,0000.0,0001.37,0004.42,0000.77
2024-06-04 14:26:00,SystemResetWarning,0823.8,4.99,000.00,030.5,029.8,000.0,038.6,032.2,017.5,0000.0,0001.38,0004.50,0000.78
2024-06-04 14:27:00,SystemResetWarning,0823.9,5.00,000.00,030.5,029.9,000.0,038.6,032.2,017.6,0000.0,0001.42,0004.48,0000.78
2024-06-04 14:28:00,SystemResetWarning,0824.0,5.00,000.00,030.5,029.9,000.0,038.7,032.2,017.9,0000.0,0001.50,0004.67,0000.78
2024-06-04 14:29:00,SystemResetWarning,0823.9,5.00,000.00,030.5,029.9,000.0,038.7,032.2,018.2,0000.0,0001.51,0004.57,0000.79
2024-06-04 14:30:00,SystemResetWarning,0824.0,5.00,000.00,030.6,029.9,000.0,038.7,032.2,018.2,0000.0,0001.51,0004.56,0000.79
2024-06-04 14:31:00,SystemResetWarning,0824.0,5.00,000.00,030.6,029.9,000.0,038.7,032.2,017.9,0000.0,0001.43,0004.44,0000.79
2024-06-04 14:32:00,SystemResetWarning,0824.0,5.00,000.00,030.6,030.0,000.0,038.8,032.3,018.3,0000.0,0001.44,0005.07,0000.78
2024-06-04 14:33:00,SystemResetWarning,0824.0,5.00,000.00,030.6,030.0,000.0,038.8,032.2,017.9,0000.0,0001.47,0005.38,0000.78
2024-06-04 14:34:00,SystemResetWarning,0824.0,5.00,000.00,030.6,029.5,000.0,038.8,032.0,018.5,0000.0,0001.47,0005.31,0000.77
2024-06-04 14:35:00,SystemResetWarning,0823.9,5.00,000.00,030.3,027.4,000.0,038.9,031.1,017.9,0000.0,0001.49,0006.74,0000.76
2024-06-04 14:36:00,SystemResetWarning,0824.0,5.02,000.00,030.0,026.9,000.0,038.9,030.7,018.3,0000.0,0001.47,0007.79,0000.76
2024-06-04 14:37:00,SystemResetWarning,0824.0,5.00,000.00,029.8,027.3,000.0,038.7,030.8,018.8,0000.0,0001.49,0008.15,0000.75
2024-06-04 14:38:00,SystemResetWarning,0824.0,4.99,000.00,029.8,027.6,000.0,038.6,031.0,018.2,0000.0,0001.48,0008.59,0000.75
2024-06-04 14:39:00,SystemResetWarning,0824.0,5.01,000.00,029.8,028.0,000.0,038.5,031.2,018.4,0000.0,0001.44,0008.76,0000.75
2024-06-04 14:40:00,SystemResetWarning,0824.1,5.00,000.00,029.8,028.2,000.0,038.5,031.3,018.1,0000.0,0001.41,0008.68,0000.76
2024-06-04 14:41:00,SystemResetWarning,0824.1,5.00,000.00,029.9,028.5,000.0,038.4,031.4,017.8,0000.0,0001.39,0008.67,0000.75
2024-06-04 14:42:00,SystemResetWarning,0824.2,4.99,000.00,029.9,028.7,000.0,038.4,031.5,018.2,0000.0,0001.42,0008.80,0000.75
2024-06-04 14:43:00,SystemResetWarning,0824.3,4.99,000.00,029.9,028.9,000.0,038.4,031.5,018.5,0000.0,0001.46,0008.74,0000.75
2024-06-04 14:44:00,SystemResetWarning,0824.2,5.00,000.00,030.0,029.0,000.0,038.4,031.6,017.2,0000.0,0001.44,0008.53,0000.75
2024-06-04 14:45:00,SystemResetWarning,0824.2,5.00,000.00,030.0,029.1,000.0,038.4,031.7,017.9,0000.0,0001.39,0008.47,0000.74
2024-06-04 14:46:00,SystemResetWarning,0824.1,5.01,000.00,030.0,029.2,000.0,038.4,031.7,017.6,0000.0,0001.34,0007.69,0000.72
2024-06-04 14:47:00,SystemResetWarning,0824.3,5.00,000.00,030.1,029.3,000.0,038.4,031.8,017.2,0000.0,0001.26,0006.57,0000.69
2024-06-04 14:48:00,SystemResetWarning,0824.3,5.00,000.00,030.1,029.4,000.0,038.4,031.8,017.3,0000.0,0001.19,0005.47,0000.65
2024-06-04 14:49:00,SystemResetWarning,0824.3,4.99,000.00,030.1,029.4,000.0,038.4,031.9,017.4,0000.0,0001.08,0004.70,0000.62
2024-06-04 14:50:00,SystemResetWarning,0824.3,4.99,000.00,030.2,029.5,000.0,038.4,031.9,017.6,0000.0,0001.07,0003.97,0000.58
2024-06-04 14:51:00,SystemResetWarning,0824.3,5.00,000.00,030.2,029.6,000.0,038.4,032.0,017.4,0000.0,0001.03,0004.36,0000.55
2024-06-04 14:52:00,SystemResetWarning,0824.3,5.00,000.00,030.2,029.6,000.0,038.5,032.0,017.6,0000.0,0000.99,0004.27,0000.52
2024-06-04 14:53:00,SystemResetWarning,0824.4,5.00,000.00,030.3,029.6,000.0,038.5,032.0,017.7,0000.0,0000.93,0004.05,0000.48
2024-06-04 14:54:00,SystemResetWarning,0824.4,5.00,000.00,030.3,029.7,000.0,038.5,032.0,018.0,0000.0,0000.88,0003.62,0000.45
2024-06-04 14:55:00,SystemResetWarning,0824.4,5.00,000.00,030.3,029.7,000.0,038.5,032.0,017.7,0000.0,0000.83,0003.51,0000.42
2024-06-04 14:56:00,SystemResetWarning,0824.4,5.00,000.00,030.4,029.7,000.0,038.5,032.0,018.3,0000.0,0000.85,0003.69,0000.42
2024-06-04 14:57:00,SystemResetWarning,0824.4,5.00,000.00,030.4,029.8,000.0,038.5,032.0,018.6,0000.0,0000.87,0003.75,0000.42
2024-06-04 14:58:00,SystemResetWarning,0824.4,5.00,000.00,030.4,029.8,000.0,038.6,032.1,019.5,0000.0,0000.90,0003.11,0000.44
2024-06-04 14:59:00,SystemResetWarning,0824.4,5.00,000.00,030.4,029.8,000.0,038.6,032.1,018.7,0000.0,0000.96,0002.80,0000.47
